Location: Newark
(11.2914°S, 14.4718°E)
Time: 11:46:41
(UTC+00:00)

Vanguard 2 - Pass Details

Date: 24 September 2019
Orbit: 554 x 2937 km, 32.9° (Epoch: 18 October)

Event Time Altitude Azimuth Distance (km) Brightness Sun altitude
Rises 19:25:12 0° 235° (SW) 5,274 12.6 -36.8°
Reaches altitude 10° 19:28:12 10° 234° (SW) 4,543 12.0 -37.5°
Maximum altitude 19:42:07 81° 146° (SE) 2,731 10.0 -40.9°
Enters shadow 19:43:53 75° 91° (E) 2,830 9.9 -41.3°
